Location: *
(49.8044°N, 4.0558°E)
Time: 00:42:22
(UTC+00:00)

STARLINK-60 - Pass Details

Date: 09 April 2020
Orbit: 388 x 399 km, 53.0° (Epoch: 30 May)

Event Time Altitude Azimuth Distance (km) Brightness Sun altitude
Rises 20:09:35 0° 258° (WSW) 2,364 7.6 -15.7°
Reaches altitude 10° 20:11:42 10° 262° (W) 1,499 6.5 -16.0°
Maximum altitude 20:15:02 64° 344° (NNW) 467 3.4 -16.4°
Enters shadow 20:17:01 22° 61° (ENE) 962 4.6 -16.7°
